ACA837 EDDM-CYYZ

Flight info

Callsign ACA837
Flight time N/A
Altitude 36000
Route GIVMI6Q GIVMI Y101 INBED DCT REKDI DCT LOHRE DCT ADKUV DCT BUB DCT DENUT L610 KOPUL Q63 ICTAM L179 SAWPE DCT OZZIL DCT ARPAK DCT FELCA DCT OFSOX DCT SLANY DCT TOBOR/M085F360 NATC ELSIR/N0484F360 N412A MIILS DCT LETAK IMEBA9
Aircraft B789/H-SDE1E2E3FGHIJ2J3J4J5M1RWXY/LB1D1

Departure

Time N/A
Airport Munich Airport (EDDM)

Arrival

Time 2026-05-06 20:18
Airport Toronto Pearson International Airport (CYYZ)
Time Latitude Longitude Altitude Speed Heading
2026-05-06 18:56 46.17424 -72.05456 39875 ft 430 kts 254°
2026-05-06 19:12 46.16587 -72.10573 39853 ft 421 kts 255°
2026-05-06 19:13 46.15226 -72.18837 39860 ft 427 kts 255°
2026-05-06 19:13 46.13851 -72.27165 39867 ft 432 kts 255°
2026-05-06 19:14 46.12452 -72.35595 39866 ft 431 kts 254°
2026-05-06 19:14 46.11051 -72.43985 39867 ft 429 kts 254°
2026-05-06 19:15 46.09651 -72.52340 39860 ft 428 kts 254°
2026-05-06 19:15 46.08244 -72.60688 39863 ft 429 kts 254°
2026-05-06 19:16 46.06828 -72.69052 39892 ft 430 kts 254°
2026-05-06 19:16 46.05400 -72.77445 39858 ft 431 kts 254°
2026-05-06 19:17 46.03973 -72.85795 39861 ft 432 kts 254°
2026-05-06 19:17 46.02529 -72.94199 39863 ft 432 kts 254°
2026-05-06 19:18 46.01081 -73.02589 39864 ft 432 kts 254°
2026-05-06 19:18 45.99623 -73.10997 39866 ft 433 kts 254°
2026-05-06 19:19 45.98159 -73.19402 39872 ft 434 kts 254°
2026-05-06 19:19 45.96685 -73.27818 39872 ft 434 kts 254°
2026-05-06 19:20 45.95214 -73.36181 39854 ft 434 kts 254°
2026-05-06 19:20 45.93728 -73.44591 39862 ft 433 kts 254°
2026-05-06 19:21 45.92490 -73.51567 39865 ft 433 kts 254°
2026-05-06 19:21 45.90999 -73.59937 39856 ft 432 kts 254°
2026-05-06 19:22 45.89501 -73.68299 39856 ft 432 kts 254°
2026-05-06 19:22 45.88001 -73.76643 39855 ft 432 kts 254°
2026-05-06 19:23 45.86493 -73.84985 39855 ft 432 kts 254°
2026-05-06 19:23 45.84981 -73.93318 39858 ft 432 kts 254°
2026-05-06 19:24 45.83472 -74.01592 39861 ft 431 kts 254°
2026-05-06 19:24 45.81949 -74.09906 39871 ft 432 kts 254°
2026-05-06 19:25 45.80416 -74.18237 39876 ft 433 kts 254°
2026-05-06 19:25 45.78876 -74.26570 39870 ft 433 kts 254°
2026-05-06 19:26 45.77330 -74.34898 39870 ft 432 kts 254°
2026-05-06 19:26 45.75777 -74.43223 39870 ft 432 kts 254°
2026-05-06 19:27 45.74221 -74.51529 39871 ft 432 kts 254°
2026-05-06 19:27 45.72659 -74.59831 39872 ft 432 kts 254°
2026-05-06 19:28 45.71093 -74.68121 39860 ft 430 kts 253°
2026-05-06 19:28 45.69522 -74.76397 39868 ft 431 kts 253°
2026-05-06 19:29 45.67953 -74.84627 39867 ft 432 kts 253°
2026-05-06 19:29 45.66363 -74.92930 39864 ft 433 kts 253°
2026-05-06 19:30 45.64764 -75.01246 39854 ft 434 kts 253°
2026-05-06 19:30 45.63164 -75.09533 39853 ft 432 kts 253°
2026-05-06 19:31 45.61564 -75.17783 39843 ft 431 kts 253°
2026-05-06 19:31 45.59158 -75.30118 39841 ft 429 kts 253°
2026-05-06 19:32 45.57550 -75.38323 39841 ft 430 kts 253°
2026-05-06 19:32 45.55927 -75.46567 39841 ft 432 kts 253°
2026-05-06 19:33 45.54310 -75.54745 39843 ft 430 kts 253°
2026-05-06 19:33 45.52686 -75.62929 39840 ft 428 kts 253°
2026-05-06 19:34 45.51056 -75.71105 39839 ft 429 kts 253°
2026-05-06 19:34 45.49413 -75.79309 39842 ft 430 kts 253°
2026-05-06 19:35 45.47764 -75.87513 39857 ft 430 kts 253°
2026-05-06 19:35 45.46115 -75.95686 39842 ft 428 kts 253°
2026-05-06 19:36 45.44466 -76.03821 39848 ft 427 kts 253°
2026-05-06 19:36 45.42812 -76.11946 39844 ft 427 kts 253°
2026-05-06 19:37 45.41154 -76.20063 39843 ft 427 kts 253°
2026-05-06 19:37 45.38961 -76.27820 39873 ft 427 kts 242°
2026-05-06 19:38 45.36061 -76.35223 39847 ft 429 kts 242°
2026-05-06 19:38 45.33154 -76.42607 39843 ft 426 kts 242°
2026-05-06 19:39 45.30265 -76.49935 39842 ft 425 kts 242°
2026-05-06 19:39 45.27371 -76.57253 39841 ft 425 kts 242°
2026-05-06 19:40 45.24479 -76.64546 39844 ft 425 kts 242°
2026-05-06 19:40 45.21563 -76.71880 39851 ft 425 kts 242°
2026-05-06 19:41 45.18671 -76.79135 39850 ft 425 kts 242°
2026-05-06 19:41 45.15772 -76.86391 39865 ft 424 kts 242°
2026-05-06 19:42 45.12853 -76.93678 39864 ft 424 kts 242°
2026-05-06 19:42 45.09937 -77.00936 39867 ft 424 kts 242°
2026-05-06 19:43 45.07017 -77.08187 39869 ft 424 kts 242°
2026-05-06 19:43 45.04090 -77.15434 39853 ft 425 kts 242°
2026-05-06 19:44 45.01159 -77.22674 39859 ft 424 kts 242°
2026-05-06 19:44 44.98228 -77.29897 39869 ft 423 kts 242°
2026-05-06 19:45 44.95295 -77.37104 39872 ft 423 kts 242°
2026-05-06 19:45 44.92356 -77.44310 39874 ft 423 kts 242°
2026-05-06 19:46 44.89438 -77.51442 39873 ft 422 kts 242°
2026-05-06 19:46 44.86502 -77.58603 39875 ft 422 kts 242°
2026-05-06 19:47 44.83558 -77.65764 39880 ft 422 kts 242°
2026-05-06 19:47 44.80604 -77.72930 39877 ft 423 kts 242°
2026-05-06 19:48 44.77645 -77.80093 39878 ft 424 kts 242°
2026-05-06 19:48 44.74680 -77.87260 39883 ft 424 kts 242°
2026-05-06 19:49 44.71725 -77.94447 39890 ft 424 kts 242°
2026-05-06 19:49 44.68782 -78.01556 39888 ft 422 kts 242°
2026-05-06 19:50 44.65832 -78.08677 39678 ft 420 kts 242°
2026-05-06 19:50 44.64365 -78.12210 39060 ft 419 kts 242°
2026-05-06 19:50 44.62896 -78.15743 38413 ft 418 kts 242°
2026-05-06 19:51 44.61432 -78.19260 37764 ft 415 kts 241°
2026-05-06 19:51 44.59981 -78.22742 37114 ft 412 kts 241°
2026-05-06 19:51 44.58539 -78.26197 36421 ft 409 kts 241°
2026-05-06 19:51 44.57105 -78.29628 35783 ft 407 kts 241°
2026-05-06 19:52 44.55674 -78.33048 35101 ft 406 kts 241°
2026-05-06 19:52 44.54240 -78.36466 34398 ft 406 kts 240°
2026-05-06 19:52 44.52809 -78.39874 33649 ft 406 kts 240°
2026-05-06 19:52 44.51376 -78.43280 32908 ft 405 kts 240°
2026-05-06 19:53 44.49956 -78.46655 32206 ft 402 kts 241°
2026-05-06 19:53 44.48553 -78.49985 31512 ft 399 kts 241°
2026-05-06 19:53 44.47148 -78.53316 30817 ft 396 kts 241°
2026-05-06 19:53 44.45748 -78.56630 30130 ft 394 kts 241°
2026-05-06 19:54 44.44359 -78.59916 29416 ft 390 kts 241°
2026-05-06 19:54 44.42986 -78.63160 28739 ft 385 kts 241°
2026-05-06 19:54 44.41631 -78.66359 28084 ft 379 kts 241°
2026-05-06 19:54 44.40292 -78.69512 27442 ft 375 kts 240°
2026-05-06 19:55 44.38968 -78.72631 26791 ft 371 kts 240°
2026-05-06 19:55 44.37658 -78.75713 26161 ft 366 kts 240°
2026-05-06 19:55 44.36365 -78.78751 25542 ft 362 kts 240°
2026-05-06 19:55 44.35084 -78.81757 24917 ft 357 kts 240°
2026-05-06 19:56 44.33819 -78.84723 24312 ft 353 kts 240°
2026-05-06 19:56 44.32567 -78.87656 23715 ft 349 kts 239°
2026-05-06 19:56 44.31329 -78.90551 23082 ft 345 kts 239°
2026-05-06 19:56 44.30108 -78.93404 22503 ft 339 kts 239°
2026-05-06 19:57 44.28908 -78.96205 21929 ft 333 kts 239°
2026-05-06 19:57 44.27729 -78.98957 21375 ft 328 kts 239°
2026-05-06 19:57 44.26556 -79.01692 20809 ft 329 kts 239°
2026-05-06 19:57 44.25252 -79.04320 20274 ft 330 kts 232°
2026-05-06 19:58 44.23662 -79.06641 19724 ft 331 kts 224°
2026-05-06 19:58 44.21869 -79.08581 19157 ft 328 kts 220°
2026-05-06 19:58 44.20040 -79.10455 18627 ft 325 kts 220°
2026-05-06 19:58 44.18223 -79.12321 18064 ft 323 kts 220°
2026-05-06 19:59 44.16426 -79.14154 17553 ft 316 kts 220°
2026-05-06 19:59 44.14686 -79.15923 17347 ft 301 kts 220°
2026-05-06 19:59 44.13039 -79.17599 17211 ft 285 kts 220°
2026-05-06 19:59 44.11479 -79.19190 17082 ft 270 kts 221°
2026-05-06 20:00 44.09990 -79.20709 16919 ft 264 kts 221°
2026-05-06 20:00 44.08488 -79.22246 16622 ft 271 kts 221°
2026-05-06 20:00 44.06980 -79.23777 16534 ft 265 kts 221°
2026-05-06 20:00 44.05467 -79.25313 16175 ft 275 kts 221°
2026-05-06 20:01 44.03927 -79.26877 15776 ft 272 kts 221°
2026-05-06 20:01 44.02409 -79.28414 15415 ft 268 kts 221°
2026-05-06 20:01 44.00926 -79.29917 15065 ft 267 kts 221°
2026-05-06 20:01 43.99432 -79.31432 14718 ft 265 kts 221°
2026-05-06 20:02 43.97942 -79.32942 14369 ft 264 kts 221°
2026-05-06 20:02 43.96460 -79.34441 14022 ft 263 kts 221°
2026-05-06 20:02 43.94982 -79.35936 13673 ft 262 kts 221°
2026-05-06 20:02 43.93511 -79.37422 13301 ft 261 kts 221°
2026-05-06 20:03 43.92050 -79.38899 12945 ft 259 kts 221°
2026-05-06 20:03 43.90593 -79.40369 12604 ft 259 kts 220°
2026-05-06 20:03 43.89136 -79.41839 12278 ft 259 kts 220°
2026-05-06 20:03 43.87680 -79.43307 11939 ft 259 kts 220°
2026-05-06 20:04 43.86184 -79.44706 11591 ft 262 kts 211°
2026-05-06 20:04 43.84437 -79.45538 11251 ft 268 kts 201°
2026-05-06 20:04 43.82633 -79.46193 10898 ft 268 kts 200°
2026-05-06 20:04 43.80835 -79.46831 10546 ft 266 kts 200°
2026-05-06 20:05 43.79058 -79.47466 10194 ft 261 kts 200°
2026-05-06 20:05 43.77316 -79.48094 9849 ft 255 kts 200°
2026-05-06 20:05 43.75621 -79.48706 9488 ft 248 kts 200°
2026-05-06 20:05 43.73973 -79.49299 9136 ft 241 kts 200°
2026-05-06 20:06 43.72373 -79.49876 8836 ft 237 kts 200°
2026-05-06 20:06 43.70762 -79.50459 8532 ft 241 kts 200°
2026-05-06 20:06 43.69140 -79.51042 8220 ft 241 kts 200°
2026-05-06 20:06 43.67519 -79.51623 8000 ft 238 kts 199°
2026-05-06 20:07 43.65907 -79.52190 7997 ft 241 kts 199°
2026-05-06 20:07 43.64312 -79.52746 7675 ft 240 kts 199°
2026-05-06 20:07 43.62677 -79.53320 7156 ft 242 kts 199°
2026-05-06 20:07 43.61044 -79.53892 6699 ft 242 kts 199°
2026-05-06 20:08 43.59512 -79.54750 6167 ft 236 kts 221°
2026-05-06 20:08 43.58345 -79.56278 6002 ft 226 kts 229°
2026-05-06 20:08 43.57239 -79.57880 6010 ft 234 kts 230°
2026-05-06 20:08 43.56512 -79.58954 5899 ft 228 kts 230°
2026-05-06 20:09 43.55120 -79.60987 5335 ft 221 kts 230°
2026-05-06 20:09 43.54070 -79.62512 4985 ft 215 kts 229°
2026-05-06 20:09 43.53042 -79.64005 5020 ft 218 kts 230°
2026-05-06 20:09 43.51991 -79.65532 5014 ft 220 kts 229°
2026-05-06 20:10 43.51279 -79.66566 5011 ft 221 kts 229°
2026-05-06 20:10 43.50214 -79.68110 4844 ft 223 kts 229°
2026-05-06 20:10 43.49154 -79.69645 4648 ft 220 kts 230°
2026-05-06 20:10 43.48097 -79.71179 4438 ft 221 kts 230°
2026-05-06 20:11 43.47057 -79.72685 4252 ft 216 kts 230°
2026-05-06 20:11 43.46044 -79.74146 4028 ft 206 kts 230°
2026-05-06 20:11 43.45414 -79.75771 3868 ft 186 kts 266°
2026-05-06 20:11 43.45554 -79.77446 3805 ft 169 kts 285°
2026-05-06 20:12 43.46081 -79.78808 3717 ft 156 kts 305°
2026-05-06 20:12 43.46863 -79.79776 3486 ft 153 kts 322°
2026-05-06 20:12 43.47921 -79.80324 2906 ft 168 kts 348°
2026-05-06 20:12 43.49047 -79.80276 2998 ft 167 kts
2026-05-06 20:13 43.50219 -79.79893 3019 ft 174 kts
2026-05-06 20:13 43.51390 -79.79537 3017 ft 173 kts
2026-05-06 20:13 43.52569 -79.79196 3017 ft 173 kts
2026-05-06 20:13 43.53747 -79.78854 3016 ft 174 kts
2026-05-06 20:14 43.54884 -79.78127 3016 ft 185 kts 26°
2026-05-06 20:14 43.55931 -79.77055 2997 ft 192 kts 41°
2026-05-06 20:14 43.56857 -79.75744 3020 ft 192 kts 41°
2026-05-06 20:14 43.57771 -79.74433 3014 ft 184 kts 44°
2026-05-06 20:15 43.58665 -79.73137 2817 ft 188 kts 44°
2026-05-06 20:15 43.59541 -79.71863 2557 ft 180 kts 44°
2026-05-06 20:15 43.60391 -79.70630 2309 ft 172 kts 44°
2026-05-06 20:15 43.61185 -79.69475 2072 ft 161 kts 44°
2026-05-06 20:16 43.61934 -79.68386 1851 ft 152 kts 44°
2026-05-06 20:16 43.62634 -79.67368 1653 ft 143 kts 44°
2026-05-06 20:16 43.63317 -79.66391 1458 ft 142 kts 44°
2026-05-06 20:16 43.63993 -79.65408 1234 ft 139 kts 44°
2026-05-06 20:17 43.64662 -79.64437 1040 ft 139 kts 44°
2026-05-06 20:17 43.65322 -79.63470 834 ft 138 kts 44°
2026-05-06 20:17 43.65985 -79.62519 664 ft 136 kts 44°
2026-05-06 20:17 43.66606 -79.61623 573 ft 107 kts 45°
2026-05-06 20:18 43.66963 -79.61098 576 ft 51 kts 46°
2026-05-06 20:18 43.67157 -79.60816 573 ft 31 kts 47°
2026-05-06 20:18 43.67260 -79.60661 569 ft 9 kts 44°
2026-05-06 20:18 43.67294 -79.60642 574 ft 4 kts 351°
2026-05-06 20:19 43.67341 -79.60690 567 ft 14 kts 318°
2026-05-06 20:19 43.67425 -79.60799 567 ft 15 kts 315°
2026-05-06 20:19 43.67477 -79.60866 568 ft 9 kts 319°
2026-05-06 20:19 43.67515 -79.60927 576 ft 7 kts 285°
2026-05-06 20:20 43.67503 -79.61007 569 ft 10 kts 248°
2026-05-06 20:20 43.67481 -79.61100 570 ft 11 kts 259°
2026-05-06 20:20 43.67478 -79.61206 567 ft 12 kts 274°
2026-05-06 20:20 43.67498 -79.61319 574 ft 12 kts 291°
2026-05-06 20:21 43.67543 -79.61424 573 ft 13 kts 309°
2026-05-06 20:21 43.67607 -79.61514 574 ft 13 kts 315°
2026-05-06 20:21 43.67669 -79.61576 574 ft 5 kts 358°
2026-05-06 20:21 43.67688 -79.61562 569 ft 3 kts 43°
2026-05-06 20:22 43.67694 -79.61544 574 ft 1 kts 74°
2026-05-06 20:22 43.67695 -79.61525 572 ft 5 kts 84°
2026-05-06 20:22 43.67695 -79.61471 567 ft 6 kts 91°
2026-05-06 20:22 43.67695 -79.61423 567 ft 0 kts 90°